QPF
0.04 0.03 0.02 0.01 0.00 0.00 0.00 0.00 0.01 0.01 0.00 0.01 0.01 0.01 0.01 0.01 0.01 0.01 0.01 0.03 0.04 0.03 0.04 0.03 0.02 0.01 0.02 0.03 0.03 0.03 0.02 0.02 0.03 0.04 0.04 0.04 0.06 0.05 0.06 0.05 0.05 0.03 0.04
0.05 0.04 0.02 0.00 0.00 0.01 0.01 0.00 0.00 0.00 0.01 0.01 0.01 0.01 0.01 0.01 0.01 0.01 0.01 0.02 0.03 0.03 0.03 0.02 0.02 0.03 0.03 0.03 0.02 0.03 0.02 0.01 0.01 0.02 0.03 0.03 0.05 0.05 0.04 0.04 0.04 0.03 0.04
0.04 0.02 0.00 0.00 0.00 0.00 0.00 0.00 0.00 0.00 0.00 0.01 0.01 0.02 0.02 0.02 0.02 0.01 0.01 0.01 0.03 0.03 0.03 0.02 0.02 0.03 0.04 0.02 0.01 0.02 0.02 0.02 0.01 0.01 0.02 0.03 0.03 0.05 0.06 0.05 0.05 0.04 0.05
0.02 0.01 0.00 0.00 0.00 0.00 0.00 0.00 0.01 0.00 0.00 0.01 0.01 0.03 0.03 0.04 0.03 0.02 0.02 0.02 0.04 0.03 0.03 0.02 0.02 0.02 0.03 0.02 0.01 0.02 0.03 0.02 0.02 0.01 0.01 0.03 0.03 0.06 0.08 0.06 0.06 0.04 0.05
0.01 0.01 0.01 0.00 0.00 0.00 0.00 0.01 0.00 0.00 0.00 0.01 0.01 0.03 0.03 0.05 0.07 0.05 0.02 0.02 0.05 0.04 0.02 0.03 0.03 0.03 0.04 0.03 0.03 0.03 0.04 0.03 0.02 0.01 0.02 0.04 0.05 0.09 0.08 0.07 0.05 0.05 0.05
0.02 0.01 0.01 0.00 0.00 0.00 0.00 0.00 0.00 0.00 0.00 0.00 0.00 0.01 0.02 0.03 0.07 0.10 0.05 0.03 0.08 0.07 0.03 0.03 0.04 0.04 0.05 0.04 0.04 0.03 0.02 0.02 0.01 0.01 0.02 0.05 0.07 0.10 0.08 0.07 0.06 0.05 0.05
0.08 0.03 0.02 0.01 0.00 0.00 0.00 0.00 0.00 0.00 0.01 0.00 0.00 0.01 0.01 0.01 0.03 0.09 0.13 0.08 0.10 0.11 0.04 0.04 0.04 0.04 0.05 0.06 0.05 0.03 0.02 0.02 0.01 0.01 0.03 0.05 0.07 0.08 0.08 0.08 0.07 0.05 0.05
0.06 0.04 0.02 0.01 0.01 0.00 0.01 0.01 0.01 0.00 0.00 0.01 0.01 0.01 0.01 0.02 0.02 0.04 0.10 0.13 0.11 0.13 0.06 0.05 0.06 0.05 0.06 0.06 0.04 0.03 0.02 0.03 0.01 0.01 0.04 0.04 0.05 0.09 0.08 0.06 0.06 0.05 0.05
0.03 0.04 0.02 0.01 0.01 0.01 0.01 0.02 0.01 0.01 0.00 0.01 0.01 0.01 0.02 0.04 0.05 0.05 0.06 0.07 0.08 0.10 0.08 0.05 0.06 0.06 0.05 0.04 0.03 0.03 0.03 0.03 0.01 0.02 0.03 0.04 0.06 0.08 0.08 0.06 0.05 0.05 0.04
0.02 0.03 0.05 0.03 0.01 0.01 0.01 0.01 0.01 0.01 0.01 0.01 0.01 0.02 0.02 0.05 0.09 0.14 0.11 0.08 0.06 0.06 0.07 0.05 0.05 0.06 0.03 0.02 0.03 0.03 0.03 0.02 0.01 0.03 0.03 0.05 0.08 0.08 0.08 0.07 0.06 0.05 0.03
0.06 0.04 0.04 0.04 0.03 0.03 0.02 0.02 0.02 0.02 0.02 0.02 0.02 0.04 0.04 0.06 0.09 0.13 0.16 0.15 0.10 0.06 0.05 0.05 0.05 0.05 0.03 0.02 0.03 0.03 0.03 0.01 0.01 0.02 0.02 0.08 0.10 0.08 0.07 0.06 0.05 0.05 0.04
0.09 0.07 0.06 0.05 0.05 0.04 0.03 0.03 0.05 0.03 0.02 0.02 0.04 0.05 0.04 0.05 0.06 0.07 0.09 0.09 0.09 0.07 0.07 0.06 0.04 0.05 0.03 0.02 0.02 0.03 0.02 0.02 0.02 0.02 0.02 0.04 0.08 0.08 0.07 0.06 0.05 0.04 0.03
0.12 0.11 0.09 0.06 0.06 0.06 0.05 0.05 0.05 0.05 0.05 0.05 0.04 0.04 0.05 0.06 0.06 0.07 0.08 0.08 0.08 0.08 0.07 0.06 0.04 0.04 0.02 0.02 0.02 0.02 0.03 0.03 0.02 0.02 0.02 0.03 0.05 0.06 0.06 0.06 0.05 0.05 0.04
0.13 0.09 0.10 0.09 0.09 0.09 0.08 0.05 0.05 0.06 0.06 0.06 0.05 0.06 0.08 0.11 0.11 0.11 0.10 0.09 0.08 0.06 0.06 0.06 0.04 0.03 0.03 0.02 0.02 0.01 0.01 0.02 0.02 0.02 0.02 0.03 0.03 0.04 0.05 0.05 0.04 0.05 0.06
0.11 0.10 0.10 0.14 0.13 0.13 0.10 0.08 0.07 0.07 0.05 0.05 0.05 0.06 0.09 0.13 0.16 0.15 0.12 0.11 0.12 0.10 0.08 0.07 0.05 0.03 0.02 0.02 0.01 0.02 0.02 0.02 0.02 0.02 0.02 0.03 0.03 0.03 0.04 0.04 0.05 0.06 0.05
0.08 0.09 0.14 0.20 0.19 0.16 0.15 0.13 0.10 0.10 0.09 0.07 0.06 0.06 0.07 0.08 0.08 0.08 0.08 0.10 0.12 0.13 0.13 0.10 0.07 0.05 0.04 0.03 0.03 0.03 0.03 0.03 0.03 0.03 0.03 0.03 0.03 0.03 0.03 0.05 0.06 0.06 0.06
0.07 0.10 0.18 0.22 0.34 0.23 0.19 0.26 0.16 0.09 0.10 0.10 0.08 0.07 0.06 0.06 0.05 0.05 0.05 0.07 0.09 0.11 0.13 0.14 0.12 0.08 0.06 0.05 0.05 0.05 0.04 0.03 0.03 0.03 0.03 0.03 0.03 0.04 0.05 0.05 0.05 0.06 0.06
0.08 0.10 0.15 0.17 0.23 0.16 0.11 0.15 0.15 0.09 0.10 0.11 0.09 0.07 0.07 0.06 0.04 0.04 0.03 0.03 0.04 0.08 0.14 0.15 0.11 0.11 0.11 0.10 0.08 0.06 0.05 0.04 0.04 0.03 0.03 0.03 0.02 0.02 0.04 0.05 0.05 0.05 0.04
0.08 0.10 0.16 0.14 0.08 0.05 0.04 0.07 0.10 0.09 0.09 0.08 0.08 0.09 0.08 0.06 0.04 0.04 0.04 0.03 0.04 0.06 0.10 0.12 0.11 0.10 0.12 0.13 0.11 0.09 0.07 0.05 0.05 0.04 0.04 0.04 0.03 0.03 0.03 0.04 0.05 0.04 0.04
0.11 0.11 0.12 0.09 0.05 0.03 0.03 0.05 0.09 0.09 0.08 0.08 0.10 0.09 0.08 0.06 0.06 0.06 0.07 0.07 0.07 0.04 0.04 0.06 0.09 0.08 0.08 0.09 0.09 0.08 0.07 0.06 0.05 0.04 0.04 0.05 0.05 0.04 0.04 0.04 0.04 0.04 0.04
0.09 0.12 0.09 0.07 0.03 0.03 0.03 0.03 0.06 0.07 0.06 0.06 0.08 0.08 0.06 0.06 0.09 0.14 0.14 0.11 0.07 0.04 0.04 0.04 0.07 0.07 0.07 0.08 0.08 0.08 0.07 0.06 0.06 0.04 0.04 0.04 0.04 0.04 0.04 0.05 0.04 0.03 0.03
0.08 0.09 0.08 0.05 0.04 0.03 0.03 0.04 0.06 0.07 0.07 0.07 0.06 0.06 0.05 0.07 0.14 0.23 0.20 0.10 0.05 0.04 0.04 0.04 0.04 0.05 0.05 0.06 0.05 0.05 0.04 0.04 0.04 0.04 0.04 0.04 0.03 0.04 0.04 0.04 0.05 0.04 0.03
0.07 0.07 0.07 0.05 0.05 0.05 0.06 0.08 0.07 0.07 0.08 0.06 0.05 0.06 0.06 0.08 0.11 0.13 0.09 0.04 0.03 0.05 0.05 0.05 0.04 0.05 0.05 0.06 0.08 0.06 0.04 0.02 0.02 0.03 0.03 0.04 0.04 0.04 0.03 0.03 0.04 0.04 0.04
0.06 0.06 0.07 0.07 0.09 0.08 0.09 0.09 0.06 0.05 0.06 0.05 0.05 0.05 0.06 0.08 0.08 0.07 0.05 0.03 0.04 0.05 0.06 0.07 0.07 0.06 0.05 0.05 0.06 0.05 0.04 0.02 0.02 0.02 0.03 0.04 0.04 0.03 0.03 0.03 0.03 0.03 0.03
0.11 0.08 0.09 0.12 0.11 0.09 0.10 0.09 0.07 0.07 0.06 0.05 0.05 0.05 0.05 0.06 0.07 0.07 0.07 0.07 0.07 0.07 0.06 0.06 0.07 0.07 0.06 0.05 0.05 0.04 0.03 0.03 0.03 0.02 0.02 0.03 0.04 0.04 0.04 0.04 0.04 0.04 0.04
0.17 0.14 0.11 0.16 0.12 0.11 0.10 0.07 0.08 0.06 0.05 0.04 0.03 0.04 0.04 0.04 0.05 0.05 0.06 0.07 0.08 0.08 0.06 0.05 0.05 0.04 0.04 0.05 0.05 0.06 0.06 0.05 0.04 0.04 0.03 0.02 0.03 0.03 0.03 0.03 0.03 0.03 0.05
MSLP
1011.75 1011.30 1010.99 1010.89 1010.99 1011.26 1011.62 1012.00 1012.32 1012.56 1012.73 1012.86 1013.00 1013.19 1013.47 1013.81 1014.20 1014.58 1014.90 1015.12 1015.25 1015.29 1015.28 1015.28 1015.30 1015.37 1015.48 1015.62 1015.76 1015.87 1015.93 1015.95 1015.94 1015.91 1015.89 1015.89 1015.90 1015.92 1015.94 1015.94 1015.93 1015.92 1015.92
1011.50 1011.14 1010.92 1010.90 1011.05 1011.34 1011.71 1012.08 1012.40 1012.66 1012.85 1013.02 1013.21 1013.45 1013.76 1014.11 1014.48 1014.83 1015.10 1015.29 1015.38 1015.40 1015.39 1015.38 1015.41 1015.47 1015.56 1015.66 1015.76 1015.81 1015.83 1015.82 1015.79 1015.76 1015.74 1015.74 1015.75 1015.76 1015.77 1015.76 1015.75 1015.74 1015.75
1011.10 1010.87 1010.77 1010.84 1011.06 1011.40 1011.79 1012.17 1012.51 1012.77 1012.99 1013.19 1013.41 1013.67 1013.98 1014.32 1014.66 1014.96 1015.20 1015.35 1015.42 1015.44 1015.45 1015.46 1015.50 1015.56 1015.64 1015.71 1015.76 1015.77 1015.74 1015.69 1015.64 1015.60 1015.58 1015.58 1015.60 1015.61 1015.61 1015.60 1015.59 1015.58 1015.61
1010.68 1010.58 1010.61 1010.79 1011.10 1011.50 1011.91 1012.31 1012.65 1012.92 1013.16 1013.37 1013.60 1013.87 1014.16 1014.47 1014.77 1015.02 1015.21 1015.34 1015.41 1015.45 1015.49 1015.54 1015.61 1015.69 1015.76 1015.80 1015.80 1015.75 1015.68 1015.59 1015.52 1015.47 1015.45 1015.46 1015.47 1015.48 1015.48 1015.46 1015.44 1015.43 1015.47
1010.39 1010.41 1010.57 1010.85 1011.23 1011.67 1012.10 1012.50 1012.83 1013.11 1013.34 1013.56 1013.79 1014.04 1014.31 1014.59 1014.83 1015.04 1015.20 1015.31 1015.39 1015.47 1015.55 1015.65 1015.76 1015.85 1015.91 1015.92 1015.88 1015.78 1015.66 1015.53 1015.44 1015.38 1015.36 1015.36 1015.37 1015.38 1015.36 1015.32 1015.29 1015.28 1015.31
1010.34 1010.47 1010.72 1011.07 1011.49 1011.94 1012.37 1012.74 1013.05 1013.31 1013.53 1013.74 1013.97 1014.21 1014.46 1014.70 1014.91 1015.08 1015.21 1015.31 1015.40 1015.51 1015.63 1015.77 1015.91 1016.02 1016.07 1016.06 1015.97 1015.83 1015.66 1015.50 1015.38 1015.31 1015.29 1015.30 1015.31 1015.30 1015.26 1015.20 1015.14 1015.11 1015.12
1010.61 1010.81 1011.10 1011.49 1011.91 1012.33 1012.70 1013.02 1013.28 1013.50 1013.71 1013.91 1014.13 1014.37 1014.61 1014.82 1015.00 1015.14 1015.24 1015.33 1015.43 1015.56 1015.71 1015.88 1016.04 1016.15 1016.20 1016.15 1016.03 1015.85 1015.65 1015.47 1015.34 1015.27 1015.26 1015.27 1015.27 1015.25 1015.19 1015.10 1015.00 1014.93 1014.90
1011.19 1011.41 1011.71 1012.07 1012.44 1012.79 1013.08 1013.32 1013.51 1013.68 1013.86 1014.05 1014.28 1014.52 1014.76 1014.96 1015.12 1015.23 1015.31 1015.38 1015.47 1015.60 1015.75 1015.93 1016.09 1016.20 1016.22 1016.16 1016.01 1015.81 1015.60 1015.42 1015.30 1015.24 1015.24 1015.27 1015.28 1015.25 1015.17 1015.04 1014.89 1014.76 1014.68
1011.96 1012.18 1012.45 1012.75 1013.04 1013.29 1013.47 1013.60 1013.71 1013.82 1013.97 1014.17 1014.40 1014.66 1014.90 1015.11 1015.25 1015.34 1015.39 1015.43 1015.49 1015.59 1015.72 1015.88 1016.03 1016.12 1016.13 1016.06 1015.90 1015.70 1015.50 1015.34 1015.24 1015.22 1015.25 1015.30 1015.33 1015.30 1015.20 1015.03 1014.83 1014.64 1014.49
1012.79 1012.98 1013.21 1013.44 1013.64 1013.77 1013.83 1013.86 1013.88 1013.94 1014.06 1014.25 1014.50 1014.78 1015.04 1015.25 1015.39 1015.46 1015.47 1015.47 1015.48 1015.53 1015.63 1015.75 1015.86 1015.93 1015.94 1015.86 1015.72 1015.55 1015.38 1015.26 1015.21 1015.23 1015.30 1015.38 1015.43 1015.41 1015.30 1015.11 1014.86 1014.61 1014.39
1013.51 1013.69 1013.89 1014.05 1014.16 1014.18 1014.14 1014.07 1014.02 1014.03 1014.13 1014.32 1014.59 1014.88 1015.16 1015.38 1015.51 1015.56 1015.54 1015.50 1015.46 1015.46 1015.50 1015.57 1015.65 1015.70 1015.70 1015.64 1015.52 1015.39 1015.27 1015.21 1015.21 1015.28 1015.39 1015.51 1015.58 1015.58 1015.47 1015.26 1014.99 1014.68 1014.40
1014.04 1014.22 1014.40 1014.52 1014.56 1014.51 1014.39 1014.26 1014.15 1014.13 1014.21 1014.40 1014.68 1014.99 1015.28 1015.50 1015.63 1015.66 1015.62 1015.54 1015.45 1015.40 1015.39 1015.42 1015.46 1015.50 1015.50 1015.46 1015.38 1015.30 1015.23 1015.22 1015.27 1015.39 1015.54 1015.68 1015.78 1015.78 1015.68 1015.48 1015.19 1014.86 1014.54
1014.32 1014.52 1014.71 1014.82 1014.83 1014.75 1014.60 1014.43 1014.30 1014.26 1014.33 1014.52 1014.79 1015.10 1015.39 1015.61 1015.74 1015.77 1015.71 1015.61 1015.50 1015.41 1015.36 1015.35 1015.37 1015.39 1015.40 1015.39 1015.35 1015.31 1015.30 1015.33 1015.42 1015.56 1015.72 1015.88 1015.98 1016.00 1015.91 1015.72 1015.44 1015.11 1014.77
1014.37 1014.62 1014.83 1014.96 1014.98 1014.92 1014.78 1014.62 1014.49 1014.44 1014.50 1014.67 1014.92 1015.21 1015.49 1015.71 1015.84 1015.88 1015.83 1015.73 1015.62 1015.52 1015.45 1015.42 1015.43 1015.44 1015.46 1015.47 1015.46 1015.46 1015.48 1015.54 1015.64 1015.77 1015.93 1016.06 1016.16 1016.18 1016.10 1015.93 1015.68 1015.37 1015.05
1014.27 1014.55 1014.80 1014.98 1015.05 1015.03 1014.94 1014.82 1014.72 1014.69 1014.73 1014.88 1015.09 1015.34 1015.58 1015.79 1015.92 1015.98 1015.96 1015.89 1015.80 1015.72 1015.66 1015.63 1015.63 1015.64 1015.66 1015.69 1015.71 1015.73 1015.77 1015.82 1015.90 1016.01 1016.12 1016.22 1016.28 1016.28 1016.21 1016.07 1015.85 1015.59 1015.31
1014.11 1014.41 1014.69 1014.91 1015.05 1015.11 1015.10 1015.05 1015.00 1014.98 1015.02 1015.12 1015.27 1015.46 1015.66 1015.83 1015.97 1016.06 1016.09 1016.08 1016.04 1016.00 1015.96 1015.94 1015.94 1015.95 1015.98 1016.01 1016.04 1016.07 1016.11 1016.15 1016.19 1016.25 1016.29 1016.33 1016.33 1016.30 1016.22 1016.10 1015.92 1015.72 1015.50
1013.95 1014.24 1014.53 1014.79 1015.00 1015.15 1015.25 1015.29 1015.31 1015.31 1015.33 1015.38 1015.46 1015.57 1015.70 1015.85 1015.99 1016.10 1016.19 1016.25 1016.29 1016.30 1016.30 1016.30 1016.30 1016.32 1016.34 1016.37 1016.40 1016.44 1016.46 1016.48 1016.49 1016.48 1016.45 1016.40 1016.33 1016.25 1016.15 1016.03 1015.89 1015.75 1015.59
1013.84 1014.08 1014.35 1014.64 1014.92 1015.16 1015.37 1015.52 1015.61 1015.65 1015.65 1015.64 1015.64 1015.67 1015.73 1015.84 1015.97 1016.13 1016.28 1016.41 1016.52 1016.60 1016.64 1016.66 1016.66 1016.67 1016.69 1016.72 1016.76 1016.79 1016.82 1016.82 1016.79 1016.71 1016.61 1016.48 1016.33 1016.18 1016.03 1015.90 1015.78 1015.68 1015.57
1013.80 1013.95 1014.17 1014.46 1014.79 1015.13 1015.45 1015.70 1015.88 1015.96 1015.96 1015.91 1015.83 1015.78 1015.77 1015.83 1015.96 1016.15 1016.36 1016.57 1016.75 1016.88 1016.95 1016.99 1017.00 1017.00 1017.01 1017.04 1017.08 1017.13 1017.17 1017.17 1017.11 1016.99 1016.82 1016.61 1016.38 1016.15 1015.94 1015.78 1015.65 1015.55 1015.47
1013.80 1013.83 1013.98 1014.25 1014.63 1015.05 1015.48 1015.85 1016.11 1016.25 1016.25 1016.17 1016.03 1015.91 1015.85 1015.87 1016.00 1016.22 1016.48 1016.75 1016.99 1017.16 1017.27 1017.31 1017.31 1017.29 1017.30 1017.33 1017.39 1017.47 1017.53 1017.54 1017.49 1017.35 1017.12 1016.84 1016.52 1016.21 1015.93 1015.70 1015.53 1015.41 1015.33
1013.83 1013.73 1013.79 1014.04 1014.44 1014.94 1015.47 1015.94 1016.30 1016.49 1016.53 1016.43 1016.26 1016.10 1016.00 1016.01 1016.14 1016.38 1016.68 1017.00 1017.28 1017.48 1017.60 1017.63 1017.62 1017.59 1017.58 1017.62 1017.71 1017.82 1017.91 1017.96 1017.93 1017.78 1017.53 1017.19 1016.80 1016.40 1016.03 1015.71 1015.47 1015.30 1015.18
1013.88 1013.66 1013.64 1013.85 1014.27 1014.82 1015.43 1016.00 1016.45 1016.71 1016.79 1016.71 1016.54 1016.36 1016.25 1016.26 1016.40 1016.66 1017.00 1017.35 1017.65 1017.86 1017.97 1017.99 1017.95 1017.90 1017.88 1017.93 1018.03 1018.18 1018.33 1018.42 1018.42 1018.28 1018.02 1017.64 1017.18 1016.70 1016.23 1015.82 1015.49 1015.24 1015.05
1013.98 1013.66 1013.56 1013.74 1014.15 1014.74 1015.41 1016.06 1016.58 1016.91 1017.04 1017.00 1016.86 1016.70 1016.61 1016.63 1016.79 1017.08 1017.44 1017.80 1018.10 1018.30 1018.39 1018.37 1018.30 1018.22 1018.19 1018.24 1018.37 1018.55 1018.74 1018.87 1018.91 1018.80 1018.53 1018.12 1017.62 1017.06 1016.50 1016.00 1015.56 1015.21 1014.93
1014.16 1013.76 1013.61 1013.74 1014.15 1014.75 1015.45 1016.13 1016.71 1017.10 1017.29 1017.30 1017.21 1017.09 1017.04 1017.09 1017.28 1017.58 1017.95 1018.30 1018.59 1018.76 1018.81 1018.76 1018.65 1018.54 1018.49 1018.53 1018.67 1018.87 1019.09 1019.27 1019.33 1019.24 1018.98 1018.56 1018.02 1017.41 1016.79 1016.19 1015.66 1015.21 1014.84
1014.45 1014.02 1013.82 1013.92 1014.29 1014.87 1015.56 1016.26 1016.85 1017.28 1017.52 1017.59 1017.55 1017.49 1017.49 1017.58 1017.79 1018.10 1018.45 1018.79 1019.04 1019.17 1019.17 1019.07 1018.93 1018.79 1018.71 1018.74 1018.88 1019.09 1019.33 1019.52 1019.61 1019.54 1019.29 1018.87 1018.32 1017.69 1017.02 1016.36 1015.76 1015.22 1014.76
1014.88 1014.44 1014.21 1014.27 1014.59 1015.12 1015.76 1016.43 1017.01 1017.45 1017.72 1017.84 1017.86 1017.86 1017.90 1018.02 1018.25 1018.55 1018.88 1019.17 1019.37 1019.45 1019.40 1019.26 1019.08 1018.91 1018.82 1018.83 1018.96 1019.16 1019.39 1019.59 1019.69 1019.63 1019.40 1019.00 1018.47 1017.83 1017.15 1016.47 1015.82 1015.23 1014.69
Thickness
5801 5803 5801 5799 5798 5796 5794 5792 5790 5788 5786 5783 5781 5778 5776 5773 5771 5768 5766 5763 5761 5759 5758 5756 5754 5753 5751 5750 5748 5747 5746 5745 5744 5743 5742 5740 5740 5739 5738 5737 5737 5736 5735
5808 5803 5800 5798 5796 5794 5791 5789 5787 5784 5782 5780 5777 5775 5772 5770 5768 5766 5763 5761 5758 5757 5755 5753 5752 5751 5749 5748 5746 5745 5744 5743 5742 5741 5739 5738 5738 5737 5736 5735 5735 5734 5734
5806 5803 5798 5796 5794 5791 5789 5786 5784 5781 5779 5777 5774 5772 5770 5768 5766 5763 5761 5758 5756 5755 5753 5752 5750 5748 5747 5745 5744 5743 5742 5741 5740 5738 5737 5736 5735 5735 5734 5733 5733 5732 5731
5805 5801 5798 5795 5791 5789 5786 5783 5781 5779 5777 5774 5772 5770 5768 5766 5763 5761 5759 5756 5754 5752 5751 5749 5748 5746 5744 5742 5741 5740 5739 5738 5737 5736 5735 5734 5733 5733 5732 5731 5731 5729 5729
5802 5799 5795 5793 5789 5786 5784 5781 5779 5777 5774 5772 5770 5768 5766 5763 5761 5759 5756 5754 5752 5750 5749 5747 5745 5744 5742 5741 5739 5738 5737 5736 5735 5734 5733 5732 5731 5731 5731 5730 5729 5728 5727
5798 5795 5793 5790 5787 5784 5782 5779 5776 5774 5772 5769 5767 5765 5763 5761 5759 5756 5754 5752 5750 5748 5746 5745 5743 5742 5740 5738 5737 5736 5735 5734 5733 5732 5732 5731 5730 5730 5729 5728 5727 5726 5725
5794 5791 5789 5785 5783 5781 5779 5776 5774 5772 5769 5767 5764 5762 5760 5758 5756 5753 5751 5750 5747 5745 5744 5742 5741 5739 5737 5736 5735 5734 5733 5732 5731 5730 5729 5729 5728 5728 5727 5725 5724 5723 5722
5791 5787 5783 5779 5776 5775 5773 5771 5770 5768 5766 5764 5761 5759 5757 5755 5753 5751 5749 5747 5745 5743 5741 5740 5738 5736 5735 5733 5732 5731 5730 5729 5729 5728 5727 5726 5726 5726 5724 5722 5721 5719 5719
5785 5782 5779 5776 5773 5770 5768 5767 5765 5764 5763 5761 5757 5755 5754 5752 5751 5749 5747 5745 5743 5741 5739 5737 5736 5734 5733 5731 5729 5729 5728 5727 5726 5725 5725 5724 5723 5723 5721 5719 5717 5716 5715
5777 5775 5773 5771 5769 5766 5764 5763 5762 5761 5759 5757 5755 5752 5750 5749 5748 5746 5744 5742 5741 5738 5736 5735 5733 5732 5731 5729 5728 5727 5726 5725 5724 5723 5722 5721 5720 5720 5718 5716 5714 5713 5712
5768 5767 5766 5765 5764 5762 5760 5759 5757 5757 5755 5753 5751 5749 5747 5746 5744 5743 5741 5739 5737 5735 5734 5732 5731 5730 5729 5727 5726 5725 5724 5723 5722 5721 5720 5719 5718 5717 5715 5713 5712 5710 5709
5762 5761 5761 5760 5758 5757 5756 5754 5752 5751 5750 5748 5746 5745 5743 5742 5740 5739 5737 5736 5734 5732 5731 5729 5728 5727 5726 5725 5724 5723 5721 5720 5719 5718 5718 5717 5716 5714 5712 5710 5709 5708 5707
5760 5757 5756 5756 5755 5753 5752 5751 5748 5746 5745 5743 5742 5741 5739 5737 5736 5735 5733 5732 5730 5729 5727 5726 5725 5724 5723 5722 5721 5720 5718 5717 5716 5715 5715 5715 5713 5712 5710 5708 5706 5705 5704
5756 5755 5753 5753 5752 5750 5748 5747 5745 5742 5740 5739 5738 5737 5735 5732 5732 5731 5729 5728 5726 5725 5723 5722 5721 5721 5719 5718 5717 5717 5716 5714 5713 5712 5712 5712 5711 5709 5708 5706 5704 5703 5701
5751 5750 5750 5749 5748 5746 5744 5743 5742 5739 5737 5736 5735 5733 5731 5729 5727 5726 5726 5725 5723 5721 5720 5718 5717 5717 5716 5714 5714 5713 5712 5711 5710 5709 5709 5709 5708 5707 5705 5703 5701 5700 5698
5748 5747 5747 5746 5744 5743 5741 5739 5738 5736 5734 5732 5731 5729 5728 5726 5724 5723 5722 5720 5719 5717 5715 5714 5713 5712 5712 5712 5710 5710 5709 5708 5706 5705 5705 5704 5704 5703 5701 5700 5698 5697 5696
5747 5745 5743 5742 5741 5738 5737 5735 5734 5733 5731 5729 5727 5726 5725 5723 5721 5719 5717 5716 5715 5713 5712 5710 5709 5709 5708 5708 5707 5706 5705 5704 5703 5702 5701 5700 5700 5700 5699 5697 5696 5694 5693
5743 5741 5739 5739 5735 5733 5732 5730 5729 5728 5727 5725 5723 5722 5720 5719 5717 5714 5712 5711 5711 5709 5708 5706 5704 5703 5702 5703 5702 5702 5701 5700 5700 5699 5698 5697 5696 5696 5695 5694 5693 5691 5690
5738 5737 5734 5732 5730 5728 5727 5726 5725 5724 5722 5721 5719 5718 5716 5714 5712 5710 5707 5706 5706 5704 5703 5702 5700 5699 5697 5697 5697 5696 5696 5695 5695 5694 5693 5693 5692 5692 5691 5690 5689 5688 5687
5734 5732 5729 5727 5724 5723 5722 5721 5719 5718 5717 5716 5715 5713 5711 5709 5708 5705 5702 5700 5699 5699 5697 5696 5695 5694 5693 5692 5692 5691 5690 5690 5690 5689 5688 5688 5688 5687 5686 5686 5685 5684 5683
5728 5725 5722 5720 5719 5717 5715 5713 5711 5711 5711 5710 5710 5708 5706 5704 5702 5698 5696 5694 5694 5692 5691 5691 5689 5688 5687 5686 5683 5681 5683 5684 5684 5684 5683 5683 5683 5683 5682 5681 5681 5680 5679
5720 5718 5716 5714 5713 5712 5710 5709 5708 5707 5707 5705 5705 5703 5702 5699 5697 5695 5691 5690 5689 5687 5686 5685 5684 5682 5681 5680 5677 5672 5669 5671 5675 5679 5677 5677 5678 5678 5678 5677 5677 5676 5675
5714 5713 5712 5710 5708 5707 5705 5704 5703 5701 5700 5698 5697 5696 5696 5694 5693 5691 5689 5686 5684 5683 5681 5680 5679 5677 5673 5673 5673 5668 5663 5661 5664 5669 5672 5672 5672 5672 5672 5673 5672 5671 5671
5709 5709 5707 5705 5704 5703 5701 5698 5697 5694 5692 5693 5692 5691 5690 5689 5687 5686 5684 5682 5679 5678 5676 5675 5674 5672 5669 5666 5665 5666 5665 5663 5658 5658 5662 5664 5665 5665 5666 5667 5667 5666 5666
5705 5705 5703 5700 5698 5698 5696 5695 5693 5692 5690 5689 5688 5685 5684 5683 5682 5680 5679 5676 5675 5673 5672 5671 5670 5668 5666 5663 5660 5659 5659 5657 5656 5652 5651 5654 5656 5659 5660 5660 5660 5660 5660
5701 5701 5699 5695 5693 5693 5692 5691 5690 5688 5686 5684 5682 5680 5678 5677 5676 5675 5674 5672 5671 5670 5669 5667 5666 5664 5661 5659 5657 5655 5653 5651 5649 5647 5645 5646 5646 5650 5653 5654 5654 5655 5654